Weather History for Bentonville, AR

Change the Weather History Date:

Tuesday, July 9, 2013

  Actual Average Record
Temperature  
Mean Temperature 83 °F -  
Max Temperature 95 °F 89 °F 98 °F (1984)
Min Temperature 71 °F 66 °F 50 °F (1952)
Cooling Degree Days 18    
Growing Degree Days 33 (Base 50)    
Moisture  
Dew Point 67 °F    
Average Humidity 59    
Maximum Humidity 83    
Minimum Humidity 39    
Precipitation  
Precipitation 0.00 in - - ()
Sea Level Pressure  
Sea Level Pressure 30.07 in    
Wind  
Wind Speed 6 mph (SSW)    
Max Wind Speed 14 mph    
Max Gust Speed 23 mph    
Visibility 10 miles    
Events      
Averages and records for this station are not official NWS values.
T = Trace of Precipitation, MM = Missing Value Source: NWS Daily Summary

Daily Weather History Graph

Daily Weather History Graph

Search for Another Location

Airport:

Trip Planner

Search our weather history database for the weather conditions in past years. The results will help you decide how hot, cold, wet, or windy it might be!

Date:

Astronomy

Jul. 09, 2013 Rise Set
Actual Time 6:07 AM CDT 8:36 PM CDT
Civil Twilight 5:37 AM CDT 9:06 PM CDT
Nautical Twilight 5:00 AM CDT 9:43 PM CDT
Astronomical Twilight 4:19 AM CDT 10:24 PM CDT
Moon 7:28 AM CDT (7/9) 9:19 PM CDT (7/9)
Length of Visible Light 15h 29m
Length of Day
14h 29m
New Moon, 2% of the Moon is Illuminated
Jul 9
New Moon
Jul 15
First Quarter
Jul 22
Full
Jul 29
Last Quarter
Aug 6
New

Hourly Weather History & Observations

Time (CDT) Temp. Heat Index Dew Point Humidity Pressure Visibility Wind Dir Wind Speed Gust Speed Precip Events Conditions
12:15 AM 78.8 °F - 66.2 °F 65% 30.09 in 10.0 mi Calm Calm - N/A   Clear
12:35 AM 75.2 °F - 66.2 °F 73% 30.09 in 10.0 mi Calm Calm - N/A   Clear
12:55 AM 77.0 °F - 66.2 °F 69% 30.09 in 10.0 mi South 3.5 mph - N/A   Clear
1:15 AM 75.2 °F - 66.2 °F 73% 30.09 in 10.0 mi South 3.5 mph - N/A   Clear
1:35 AM 75.2 °F - 66.2 °F 73% 30.09 in 10.0 mi South 3.5 mph - N/A   Clear
1:55 AM 75.2 °F - 66.2 °F 73% 30.09 in 10.0 mi South 3.5 mph - N/A   Clear
2:15 AM 75.2 °F - 66.2 °F 73% 30.08 in 10.0 mi South 5.8 mph - N/A   Clear
2:35 AM 75.2 °F - 66.2 °F 73% 30.08 in 10.0 mi South 4.6 mph - N/A   Clear
2:55 AM 75.2 °F - 66.2 °F 73% 30.09 in 10.0 mi South 4.6 mph - N/A   Clear
3:15 AM 75.2 °F - 66.2 °F 73% 30.08 in 10.0 mi South 5.8 mph - N/A   Clear
3:35 AM 75.2 °F - 66.2 °F 73% 30.08 in 10.0 mi South 4.6 mph - N/A   Clear
3:55 AM 75.2 °F - 66.2 °F 73% 30.09 in 10.0 mi South 4.6 mph - N/A   Clear
4:15 AM 75.2 °F - 66.2 °F 73% 30.09 in 10.0 mi South 3.5 mph - N/A   Clear
4:35 AM 73.4 °F - 66.2 °F 78% 30.09 in 10.0 mi South 4.6 mph - N/A   Clear
4:55 AM 73.4 °F - 66.2 °F 78% 30.09 in 10.0 mi South 3.5 mph - N/A   Clear
5:15 AM 71.6 °F - 66.2 °F 83% 30.09 in 10.0 mi SSE 5.8 mph - N/A   Clear
5:35 AM 73.4 °F - 66.2 °F 78% 30.09 in 10.0 mi South 5.8 mph - N/A   Clear
5:55 AM 73.4 °F - 66.2 °F 78% 30.09 in 10.0 mi South 4.6 mph - N/A   Clear
6:15 AM 73.4 °F - 66.2 °F 78% 30.09 in 10.0 mi SSE 5.8 mph - N/A   Clear
6:35 AM 73.4 °F - 66.2 °F 78% 30.09 in 10.0 mi South 4.6 mph - N/A   Clear
6:55 AM 75.2 °F - 66.2 °F 73% 30.10 in 10.0 mi South 4.6 mph - N/A   Clear
7:16 AM 75.2 °F - 68.0 °F 78% 30.10 in 10.0 mi South 3.5 mph - N/A   Clear
7:35 AM 77.0 °F - 68.0 °F 74% 30.11 in 10.0 mi South 6.9 mph - N/A   Clear
7:55 AM 78.8 °F - 68.0 °F 69% 30.11 in 10.0 mi SSW 6.9 mph - N/A   Clear
8:15 AM 80.6 °F 83.2 °F 68.0 °F 65% 30.11 in 10.0 mi SSW 9.2 mph - N/A   Clear
8:35 AM 80.6 °F 82.7 °F 66.2 °F 61% 30.12 in 10.0 mi SSW 8.1 mph - N/A   Clear
8:56 AM 82.4 °F 84.6 °F 66.2 °F 58% 30.13 in 10.0 mi SSW 11.5 mph - N/A   Clear
9:15 AM 82.4 °F 84.6 °F 66.2 °F 58% 30.12 in 10.0 mi SW 12.7 mph 17.3 mph N/A   Clear
9:35 AM 84.2 °F 86.6 °F 66.2 °F 55% 30.12 in 10.0 mi WSW 13.8 mph 19.6 mph N/A   Clear
9:55 AM 84.2 °F 86.6 °F 66.2 °F 55% 30.12 in 10.0 mi SSW 13.8 mph - N/A   Clear
10:15 AM 84.2 °F 86.6 °F 66.2 °F 55% 30.12 in 10.0 mi SW 12.7 mph - N/A   Clear
10:35 AM 86.0 °F 89.4 °F 68.0 °F 55% 30.12 in 10.0 mi SW 10.4 mph - N/A   Clear
10:55 AM 84.2 °F 86.6 °F 66.2 °F 55% 30.12 in 10.0 mi SW 10.4 mph - N/A   Clear
11:15 AM 84.2 °F 86.6 °F 66.2 °F 55% 30.11 in 10.0 mi SSW 11.5 mph - N/A   Clear
11:35 AM 84.2 °F 86.6 °F 66.2 °F 55% 30.12 in 10.0 mi South 8.1 mph - N/A   Clear
12:15 PM 87.8 °F 92.6 °F 69.8 °F 55% 30.10 in 10.0 mi South 10.4 mph - N/A   Clear
12:35 PM 89.6 °F 93.4 °F 68.0 °F 49% 30.10 in 10.0 mi South 12.7 mph 16.1 mph N/A   Clear
12:55 PM 89.6 °F 94.7 °F 69.8 °F 52% 30.09 in 10.0 mi SSW 10.4 mph - N/A   Clear
1:15 PM 91.4 °F 96.8 °F 69.8 °F 49% 30.08 in 10.0 mi SSW 12.7 mph - N/A   Clear
1:35 PM 91.4 °F 94.0 °F 66.2 °F 43% 30.08 in 10.0 mi SSW 11.5 mph 18.4 mph N/A   Clear
1:55 PM 91.4 °F 94.0 °F 66.2 °F 43% 30.07 in 10.0 mi SW 13.8 mph 19.6 mph N/A   Clear
2:15 PM 93.2 °F 96.2 °F 66.2 °F 41% 30.07 in 10.0 mi SSW 13.8 mph 18.4 mph N/A   Clear
2:36 PM 93.2 °F 96.2 °F 66.2 °F 41% 30.07 in 10.0 mi WSW 12.7 mph 18.4 mph N/A   Partly Cloudy
2:55 PM 93.2 °F 97.7 °F 68.0 °F 44% 30.07 in 10.0 mi SSW 12.7 mph 18.4 mph N/A   Clear
3:15 PM 93.2 °F 96.2 °F 66.2 °F 41% 30.06 in 10.0 mi SSW 11.5 mph 17.3 mph N/A   Clear
3:35 PM 93.2 °F 97.7 °F 68.0 °F 44% 30.05 in 10.0 mi SSW 11.5 mph 16.1 mph N/A   Clear
3:55 PM 93.2 °F 97.7 °F 68.0 °F 44% 30.05 in 10.0 mi South 10.4 mph 17.3 mph N/A   Partly Cloudy
4:15 PM 93.2 °F 96.2 °F 66.2 °F 41% 30.04 in 10.0 mi South 9.2 mph 23.0 mph N/A   Partly Cloudy
4:35 PM 95.0 °F 98.5 °F 66.2 °F 39% 30.03 in 10.0 mi SSW 9.2 mph 19.6 mph N/A   Partly Cloudy
4:55 PM 93.2 °F 96.2 °F 66.2 °F 41% 30.03 in 10.0 mi SSW 11.5 mph 18.4 mph N/A   Clear
5:15 PM 93.2 °F 96.2 °F 66.2 °F 41% 30.03 in 10.0 mi South 9.2 mph - N/A   Clear
5:35 PM 93.2 °F 96.2 °F 66.2 °F 41% 30.03 in 10.0 mi South 11.5 mph 18.4 mph N/A   Scattered Clouds
5:55 PM 93.2 °F 96.2 °F 66.2 °F 41% 30.03 in 10.0 mi SSW 9.2 mph - N/A   Scattered Clouds
6:15 PM 93.2 °F 96.2 °F 66.2 °F 41% 30.02 in 10.0 mi SW 11.5 mph 17.3 mph N/A   Partly Cloudy
6:35 PM 93.2 °F 96.2 °F 66.2 °F 41% 30.02 in 10.0 mi SW 9.2 mph 17.3 mph N/A   Partly Cloudy
7:15 PM 91.4 °F 94.0 °F 66.2 °F 43% 30.02 in 10.0 mi SSW 10.4 mph - N/A   Clear
7:35 PM 91.4 °F 94.0 °F 66.2 °F 43% 30.02 in 10.0 mi SW 9.2 mph - N/A   Clear
7:55 PM 89.6 °F 92.2 °F 66.2 °F 46% 30.02 in 10.0 mi SW 8.1 mph - N/A   Clear
8:15 PM 87.8 °F 90.4 °F 66.2 °F 49% 30.01 in 10.0 mi WSW 5.8 mph - N/A   Clear
8:35 PM 86.0 °F 88.2 °F 66.2 °F 51% 30.01 in 10.0 mi SW 5.8 mph - N/A   Clear
8:55 PM 86.0 °F 88.2 °F 66.2 °F 51% 30.00 in 10.0 mi SSW 5.8 mph - N/A   Clear
9:16 PM 86.0 °F 88.2 °F 66.2 °F 51% 30.00 in 10.0 mi SSW 5.8 mph - N/A   Clear
9:35 PM 84.2 °F 86.6 °F 66.2 °F 55% 30.01 in 10.0 mi South 3.5 mph - N/A   Clear
9:55 PM 82.4 °F 84.6 °F 66.2 °F 58% 30.02 in 10.0 mi South 4.6 mph - N/A   Clear
10:15 PM 80.6 °F 82.7 °F 66.2 °F 61% 30.02 in 10.0 mi South 5.8 mph - N/A   Clear
10:35 PM 80.6 °F 82.7 °F 66.2 °F 61% 30.02 in 10.0 mi South 3.5 mph - N/A   Clear
10:55 PM 80.6 °F 82.7 °F 66.2 °F 61% 30.03 in 10.0 mi Calm Calm - N/A   Clear
11:15 PM 78.8 °F - 66.2 °F 65% 30.02 in 10.0 mi South 5.8 mph - N/A   Clear
11:35 PM 80.6 °F 82.7 °F 66.2 °F 61% 30.03 in 10.0 mi South 4.6 mph - N/A   Clear
11:55 PM 78.8 °F - 66.2 °F 65% 30.03 in 10.0 mi South 4.6 mph - N/A   Clear